Precipitable_Water
0.34 0.28 0.24 0.26 0.27 0.27 0.25 0.22 0.21 0.28 0.34 0.31 0.33 0.36 0.44 0.53 0.55 0.54 0.52 0.52 0.53 0.55 0.64 0.69 0.69 0.68 0.63 0.62 0.62 0.68 0.63 0.62 0.61 0.58 0.56 0.56 0.57 0.63 0.58 0.62 0.68 0.74 0.73 0.78
0.29 0.24 0.28 0.29 0.28 0.23 0.22 0.20 0.22 0.28 0.34 0.33 0.34 0.36 0.45 0.50 0.51 0.52 0.52 0.51 0.50 0.54 0.55 0.54 0.52 0.54 0.53 0.52 0.52 0.52 0.54 0.58 0.60 0.62 0.63 0.63 0.62 0.62 0.62 0.63 0.64 0.66 0.68 0.71
0.28 0.27 0.29 0.24 0.21 0.19 0.20 0.16 0.18 0.19 0.31 0.36 0.35 0.33 0.39 0.48 0.50 0.51 0.50 0.53 0.50 0.45 0.43 0.42 0.43 0.46 0.49 0.49 0.51 0.54 0.56 0.59 0.61 0.64 0.65 0.65 0.62 0.59 0.55 0.52 0.51 0.50 0.53 0.59
0.30 0.30 0.25 0.22 0.17 0.15 0.10 0.19 0.21 0.22 0.21 0.19 0.37 0.20 0.34 0.40 0.42 0.45 0.48 0.46 0.40 0.42 0.44 0.43 0.44 0.45 0.48 0.48 0.50 0.52 0.55 0.56 0.59 0.62 0.59 0.52 0.48 0.45 0.48 0.50 0.51 0.50 0.52 0.52
0.25 0.23 0.20 0.16 0.18 0.18 0.15 0.25 0.25 0.26 0.23 0.26 0.29 0.23 0.29 0.40 0.38 0.42 0.42 0.43 0.41 0.37 0.37 0.36 0.37 0.42 0.44 0.45 0.47 0.50 0.49 0.48 0.48 0.48 0.46 0.44 0.43 0.44 0.44 0.43 0.42 0.45 0.48 0.53
0.27 0.30 0.25 0.22 0.25 0.28 0.30 0.26 0.26 0.27 0.25 0.18 0.27 0.25 0.26 0.34 0.39 0.41 0.43 0.40 0.35 0.32 0.33 0.36 0.39 0.42 0.44 0.48 0.44 0.39 0.38 0.37 0.39 0.40 0.41 0.41 0.39 0.38 0.37 0.38 0.39 0.46 0.50 0.50
0.21 0.20 0.25 0.27 0.22 0.29 0.27 0.21 0.14 0.14 0.16 0.16 0.32 0.27 0.31 0.41 0.42 0.41 0.34 0.32 0.30 0.35 0.36 0.37 0.40 0.42 0.42 0.36 0.34 0.35 0.36 0.36 0.39 0.41 0.42 0.41 0.41 0.42 0.43 0.43 0.43 0.43 0.41 0.40
0.12 0.12 0.21 0.29 0.25 0.22 0.25 0.22 0.14 0.10 0.12 0.18 0.33 0.22 0.29 0.44 0.46 0.37 0.31 0.30 0.34 0.34 0.37 0.40 0.38 0.34 0.32 0.32 0.33 0.34 0.35 0.36 0.41 0.48 0.48 0.47 0.44 0.45 0.44 0.42 0.42 0.43 0.43 0.42
0.13 0.15 0.30 0.30 0.31 0.30 0.25 0.20 0.29 0.20 0.24 0.20 0.25 0.30 0.38 0.42 0.32 0.24 0.29 0.31 0.31 0.32 0.32 0.31 0.30 0.29 0.30 0.32 0.34 0.36 0.37 0.42 0.53 0.51 0.44 0.43 0.44 0.45 0.44 0.41 0.40 0.38 0.39 0.38
0.18 0.13 0.26 0.29 0.31 0.31 0.29 0.33 0.20 0.22 0.13 0.12 0.20 0.23 0.24 0.28 0.19 0.25 0.28 0.30 0.31 0.30 0.28 0.26 0.27 0.29 0.31 0.34 0.36 0.42 0.45 0.50 0.47 0.43 0.42 0.43 0.46 0.44 0.41 0.38 0.37 0.39 0.41 0.42
0.21 0.15 0.20 0.27 0.24 0.22 0.24 0.23 0.27 0.27 0.22 0.15 0.15 0.19 0.33 0.22 0.24 0.29 0.30 0.32 0.34 0.28 0.25 0.27 0.28 0.31 0.32 0.35 0.36 0.39 0.49 0.52 0.49 0.48 0.48 0.46 0.43 0.43 0.43 0.41 0.41 0.43 0.43 0.42
0.25 0.21 0.15 0.21 0.34 0.37 0.32 0.27 0.28 0.20 0.19 0.22 0.20 0.18 0.26 0.27 0.32 0.31 0.32 0.36 0.34 0.27 0.28 0.29 0.31 0.32 0.35 0.35 0.38 0.47 0.58 0.52 0.54 0.56 0.49 0.41 0.39 0.40 0.41 0.41 0.43 0.45 0.43 0.44
0.27 0.21 0.14 0.18 0.27 0.33 0.28 0.32 0.33 0.31 0.28 0.20 0.13 0.13 0.28 0.31 0.30 0.34 0.35 0.36 0.32 0.29 0.29 0.30 0.29 0.29 0.32 0.35 0.41 0.63 0.59 0.63 0.64 0.55 0.42 0.37 0.37 0.37 0.38 0.40 0.42 0.45 0.46 0.46
0.33 0.25 0.18 0.12 0.17 0.26 0.23 0.30 0.32 0.28 0.19 0.18 0.15 0.16 0.25 0.28 0.29 0.34 0.35 0.34 0.32 0.31 0.28 0.28 0.27 0.29 0.32 0.34 0.56 0.63 0.66 0.68 0.62 0.53 0.37 0.35 0.35 0.36 0.40 0.43 0.47 0.48 0.45 0.43
0.32 0.21 0.26 0.28 0.29 0.28 0.28 0.29 0.30 0.24 0.23 0.15 0.18 0.21 0.27 0.31 0.33 0.35 0.37 0.35 0.32 0.28 0.27 0.25 0.25 0.28 0.33 0.37 0.61 0.66 0.69 0.67 0.62 0.53 0.40 0.36 0.37 0.40 0.45 0.48 0.46 0.43 0.42 0.41
0.40 0.28 0.31 0.27 0.30 0.27 0.24 0.30 0.30 0.30 0.29 0.24 0.26 0.25 0.35 0.39 0.41 0.38 0.37 0.33 0.30 0.27 0.25 0.24 0.24 0.28 0.32 0.41 0.56 0.66 0.69 0.67 0.60 0.51 0.41 0.39 0.40 0.45 0.48 0.44 0.41 0.39 0.39 0.39
0.35 0.32 0.29 0.23 0.29 0.26 0.22 0.31 0.31 0.32 0.31 0.29 0.22 0.31 0.39 0.38 0.38 0.37 0.35 0.33 0.30 0.26 0.24 0.23 0.23 0.26 0.32 0.40 0.55 0.65 0.70 0.67 0.54 0.48 0.43 0.40 0.42 0.46 0.45 0.41 0.39 0.38 0.38 0.38
0.37 0.34 0.31 0.27 0.30 0.17 0.33 0.46 0.41 0.30 0.31 0.34 0.33 0.35 0.40 0.42 0.42 0.42 0.38 0.33 0.30 0.25 0.23 0.23 0.23 0.25 0.33 0.44 0.59 0.66 0.70 0.60 0.50 0.44 0.40 0.40 0.45 0.46 0.42 0.40 0.37 0.36 0.37 0.37
0.48 0.38 0.30 0.27 0.24 0.29 0.36 0.41 0.34 0.27 0.28 0.35 0.35 0.39 0.40 0.41 0.42 0.38 0.38 0.35 0.30 0.26 0.25 0.24 0.24 0.25 0.31 0.42 0.58 0.71 0.68 0.52 0.44 0.39 0.36 0.40 0.48 0.45 0.41 0.37 0.35 0.36 0.36 0.36
0.44 0.46 0.36 0.30 0.22 0.19 0.35 0.42 0.45 0.41 0.17 0.35 0.40 0.39 0.38 0.42 0.28 0.33 0.39 0.35 0.30 0.28 0.27 0.24 0.24 0.26 0.30 0.41 0.60 0.70 0.66 0.45 0.38 0.36 0.37 0.43 0.49 0.45 0.41 0.38 0.35 0.37 0.36 0.35
0.35 0.36 0.30 0.30 0.29 0.32 0.40 0.43 0.47 0.19 0.21 0.39 0.41 0.43 0.44 0.41 0.45 0.41 0.39 0.35 0.30 0.30 0.27 0.25 0.24 0.26 0.29 0.44 0.58 0.67 0.66 0.49 0.40 0.37 0.38 0.43 0.49 0.48 0.45 0.41 0.37 0.37 0.36 0.35
0.30 0.29 0.30 0.32 0.25 0.19 0.45 0.42 0.29 0.34 0.40 0.42 0.44 0.46 0.49 0.51 0.45 0.38 0.36 0.32 0.28 0.27 0.24 0.23 0.23 0.26 0.30 0.43 0.54 0.65 0.68 0.60 0.47 0.38 0.38 0.43 0.48 0.50 0.48 0.44 0.39 0.36 0.36 0.34
0.28 0.36 0.33 0.33 0.29 0.41 0.46 0.40 0.44 0.46 0.44 0.46 0.45 0.51 0.53 0.46 0.38 0.37 0.33 0.29 0.27 0.26 0.23 0.23 0.22 0.25 0.29 0.40 0.47 0.59 0.71 0.65 0.50 0.39 0.37 0.43 0.50 0.51 0.52 0.47 0.40 0.36 0.36 0.35
0.39 0.47 0.37 0.34 0.36 0.38 0.43 0.46 0.49 0.49 0.48 0.53 0.54 0.46 0.47 0.39 0.38 0.35 0.29 0.26 0.25 0.25 0.23 0.25 0.22 0.23 0.25 0.31 0.41 0.53 0.69 0.71 0.60 0.44 0.37 0.40 0.48 0.51 0.54 0.52 0.49 0.41 0.36 0.34
0.40 0.41 0.33 0.32 0.40 0.45 0.47 0.50 0.49 0.49 0.51 0.50 0.46 0.41 0.39 0.39 0.35 0.33 0.27 0.28 0.28 0.27 0.27 0.27 0.25 0.25 0.26 0.28 0.31 0.42 0.60 0.73 0.66 0.53 0.44 0.38 0.41 0.51 0.53 0.54 0.52 0.47 0.44 0.42
0.42 0.34 0.29 0.30 0.45 0.45 0.45 0.50 0.52 0.47 0.47 0.45 0.41 0.39 0.39 0.35 0.34 0.34 0.30 0.32 0.33 0.33 0.34 0.32 0.30 0.28 0.27 0.28 0.28 0.34 0.45 0.66 0.72 0.64 0.50 0.43 0.38 0.43 0.52 0.53 0.54 0.56 0.53 0.49
Wind_Speed
6 4 5 7 7 5 4 4 1 7 8 10 10 9 12 12 13 13 13 13 13 14 16 16 16 15 16 14 14 17 20 21 23 24 26 28 30 30 31 31 31 33 35 36
5 5 6 5 4 2 2 1 6 8 9 8 9 9 10 11 10 11 13 14 15 15 14 16 16 16 18 19 19 20 21 22 24 26 29 31 30 31 33 34 35 37 38 39
6 7 7 6 5 3 6 6 7 7 7 7 7 9 10 10 11 12 13 13 14 14 16 18 19 20 20 21 21 22 24 26 28 30 31 31 32 33 34 35 36 37 38 39
5 7 6 5 5 6 6 6 5 3 7 8 9 9 9 10 11 11 13 14 15 17 19 21 20 20 20 21 22 23 25 26 28 30 31 32 33 34 35 36 37 38 39 39
8 6 5 4 7 7 7 6 5 6 6 5 10 7 9 10 11 12 13 15 17 19 20 19 19 19 21 22 23 23 25 27 29 30 32 33 35 36 37 38 39 39 39 39
6 7 7 7 6 6 5 5 5 6 7 8 9 7 10 10 12 13 14 17 19 20 17 18 20 21 22 23 24 25 27 29 30 31 33 35 36 38 39 39 39 39 39 39
7 7 8 7 7 7 5 4 7 8 8 9 8 7 9 11 12 13 15 17 19 17 19 20 21 22 23 25 27 28 29 30 31 33 35 36 37 38 39 39 40 41 41 41
8 8 8 7 7 8 6 7 6 7 7 8 8 7 8 10 13 14 16 17 16 18 20 20 22 24 26 28 28 30 31 32 34 36 36 37 38 38 39 40 42 42 40 38
8 8 7 5 7 8 8 7 7 5 8 7 8 10 10 10 12 14 15 15 17 18 20 22 24 25 27 28 29 31 33 34 35 36 37 38 38 38 38 39 38 36 35 35
11 8 10 9 9 7 7 6 6 7 5 7 8 8 8 10 12 13 15 16 17 19 22 23 25 26 28 28 30 33 34 33 34 37 39 38 38 37 36 36 36 36 36 36
10 10 11 10 9 10 9 8 7 5 5 5 5 9 8 9 10 12 14 16 18 21 22 23 26 27 28 29 31 34 34 34 36 39 39 38 37 36 38 38 37 37 37 36
11 10 10 11 11 9 9 9 8 6 8 7 6 9 7 8 10 10 13 16 19 21 23 25 26 27 28 30 33 34 33 36 39 39 39 38 37 38 39 39 39 38 37 36
13 12 11 13 13 11 9 8 8 6 5 6 4 8 8 6 8 10 13 16 19 22 24 25 27 28 29 32 34 32 35 38 39 40 39 37 39 40 41 40 39 37 37 35
12 13 14 14 12 10 9 8 8 6 5 5 5 4 6 7 9 11 14 17 20 22 24 26 27 28 31 33 35 33 36 37 38 40 39 39 41 42 42 40 38 36 34 31
14 14 14 12 10 8 8 7 7 5 4 3 4 1 5 7 8 11 14 17 20 22 24 26 27 29 32 33 35 34 36 37 38 41 41 41 43 43 42 40 37 33 30 25
16 14 13 10 9 6 3 4 3 2 1 0 1 2 6 5 9 12 14 18 20 22 24 26 27 30 33 35 37 37 37 37 38 41 42 42 44 43 41 39 35 30 25 20
15 13 12 11 11 7 4 4 3 3 3 2 2 2 5 7 10 12 14 17 19 22 24 26 28 30 33 36 38 40 38 38 37 41 42 43 45 43 40 38 34 29 22 19
8 7 7 8 7 6 8 6 5 5 5 4 2 3 5 7 10 11 13 16 19 22 24 26 28 31 33 38 40 40 38 38 37 40 41 43 45 44 41 37 31 27 22 18
3 4 4 8 7 7 8 7 7 5 5 3 2 4 6 10 10 10 14 17 19 21 24 26 28 31 33 38 41 42 38 37 38 40 40 43 45 44 41 37 31 26 23 19
10 9 8 10 8 9 10 9 8 7 4 2 3 6 8 10 10 11 15 17 19 21 24 26 29 30 33 37 41 42 38 38 38 40 40 42 44 44 41 37 32 28 23 19
13 11 12 10 9 8 10 9 8 6 4 2 4 7 9 9 10 12 15 17 19 21 23 26 28 30 32 35 39 41 38 39 38 40 39 41 43 44 43 38 33 29 25 21
11 10 10 8 9 7 10 8 6 5 2 3 6 8 10 11 11 12 15 17 19 21 23 25 27 29 32 34 37 40 38 39 38 39 39 39 41 43 44 41 36 31 27 23
10 10 9 9 10 11 9 7 5 3 2 4 7 9 10 10 11 13 15 17 18 20 22 24 27 28 31 34 35 38 38 37 38 38 39 38 39 42 42 41 40 36 31 27
9 9 11 10 10 9 7 5 3 2 3 6 8 9 8 8 11 14 15 16 18 19 21 24 26 28 30 33 34 37 38 36 37 37 38 38 38 39 41 40 39 37 35 32
7 8 9 10 8 7 6 3 3 4 5 6 8 8 8 9 11 12 14 15 17 19 21 23 25 27 29 32 33 35 37 35 36 36 36 37 36 37 38 39 38 36 34 32
6 8 7 7 5 3 1 3 5 3 5 6 7 9 10 10 11 12 13 14 17 19 21 22 24 26 28 30 32 33 35 37 34 35 36 35 36 35 35 37 37 36 35 32
Wind_Direction
268 260 267 280 283 271 275 293 304 297 301 330 322 319 319 319 321 327 328 326 322 318 320 319 313 314 319 315 305 293 292 294 294 293 293 293 292 290 289 288 285 280 277 274
262 262 270 275 290 269 260 231 303 314 318 322 316 330 322 327 323 327 328 326 322 321 321 322 320 312 311 310 304 299 296 296 295 294 296 295 293 291 291 289 286 284 281 277
246 254 268 269 276 264 282 284 282 299 320 329 311 325 325 319 324 322 321 323 326 324 320 320 318 315 314 310 304 300 298 298 298 297 297 296 295 294 293 291 289 287 284 280
253 269 260 278 276 277 290 293 298 286 315 313 312 311 320 319 322 325 325 325 324 324 322 320 320 319 318 317 316 308 304 303 303 302 301 299 298 296 295 294 291 288 285 281
254 257 262 272 279 273 283 290 285 308 324 322 334 330 308 324 324 325 325 326 327 324 323 325 326 326 325 323 320 318 314 311 308 306 304 302 300 299 297 296 294 291 287 284
242 256 268 262 280 290 271 300 320 315 316 323 319 321 312 318 316 319 324 325 324 326 328 329 327 327 327 327 324 321 318 314 312 311 308 305 303 301 300 298 295 293 290 286
262 271 272 262 269 298 281 292 309 311 317 301 310 323 297 311 321 322 322 324 326 330 330 329 328 329 329 328 325 323 321 319 317 315 312 309 306 304 302 300 298 295 292 288
242 259 273 277 270 270 273 273 282 278 289 299 303 310 306 310 314 320 323 326 332 331 332 332 332 330 329 328 326 326 323 321 320 318 315 312 309 307 304 302 300 297 293 291
245 251 256 273 280 271 271 288 280 299 308 307 303 306 313 318 322 326 329 336 334 335 337 335 333 332 331 330 329 329 326 323 322 321 319 316 313 310 308 306 304 300 296 294
246 251 263 263 271 296 272 264 290 301 297 298 308 302 295 315 318 325 333 336 338 337 336 335 335 334 334 333 333 333 332 329 327 326 323 320 317 314 313 311 307 302 297 293
250 257 265 266 281 274 278 273 296 284 291 285 299 299 294 305 319 328 334 338 338 338 337 337 337 336 336 337 337 336 335 334 332 329 327 324 321 318 315 312 308 304 299 294
261 259 265 262 266 274 273 265 264 275 277 295 298 300 302 307 324 337 339 340 342 342 341 341 341 341 341 340 338 337 338 337 335 334 332 329 326 323 318 314 310 306 302 297
257 265 264 275 273 267 270 268 262 264 283 280 296 289 319 328 337 338 339 341 344 344 345 346 346 345 344 341 340 339 339 339 339 339 336 333 331 328 323 319 315 310 305 301
264 264 260 255 262 259 258 264 245 270 272 259 280 298 323 333 335 338 341 343 346 347 348 348 349 348 347 345 345 343 342 342 342 342 340 337 335 333 329 325 321 317 311 305
267 266 263 267 263 256 251 249 246 248 240 272 246 299 321 327 331 335 338 344 348 350 350 351 351 351 350 349 348 345 346 345 345 346 344 341 339 337 335 333 327 325 320 312
273 262 260 264 255 234 217 246 211 217 241 124 130 12 344 343 339 338 343 349 351 352 352 352 353 353 353 352 351 348 346 346 346 347 347 346 345 343 342 342 340 334 332 326
272 252 252 246 229 227 230 241 208 180 159 166 103 339 346 346 344 345 348 352 353 354 355 356 356 355 356 356 354 353 349 349 349 350 350 351 351 350 349 348 348 348 346 341
251 243 244 215 218 219 204 193 173 158 140 115 88 2 352 344 343 348 356 356 355 357 357 358 358 358 358 358 357 356 355 356 355 355 356 356 358 357 357 357 358 360 360 360
129 134 132 159 150 158 160 162 157 145 143 125 41 3 354 352 354 0 0 359 358 358 358 359 360 360 0 1 1 1 2 2 2 1 2 3 4 4 5 7 8 10 11 15
88 105 103 131 126 146 160 148 146 141 117 98 27 10 1 357 3 355 356 358 359 359 0 1 2 2 2 3 5 6 6 7 7 7 7 8 10 11 11 13 15 17 17 22
91 94 110 114 113 125 144 144 137 128 147 42 19 3 357 0 354 349 355 358 359 0 2 3 4 4 4 5 6 9 10 10 10 11 12 14 16 16 18 19 20 21 25 30
90 98 101 108 112 123 141 137 138 141 98 32 3 358 352 354 356 359 358 358 360 1 3 4 5 6 7 7 8 10 11 12 13 14 16 17 19 20 22 23 26 28 31 36
94 100 103 110 120 128 131 130 122 109 41 2 350 348 350 355 4 2 359 1 2 3 5 6 6 7 8 9 10 11 12 14 15 17 18 19 20 22 24 27 31 34 37 42
104 103 111 106 113 119 122 113 101 36 349 344 346 346 354 3 3 2 3 4 5 5 6 6 7 8 9 10 12 13 14 16 18 18 20 21 23 25 27 30 34 39 45 52
115 114 115 115 115 116 110 66 359 340 344 352 359 3 5 1 359 2 4 6 6 5 6 6 8 9 9 10 12 14 16 16 19 20 22 23 25 27 30 33 37 42 48 52
133 133 127 122 122 117 102 8 355 17 14 7 5 2 358 360 359 359 2 3 3 4 5 6 7 8 9 11 12 14 16 18 18 20 22 24 26 28 32 36 40 45 49 53